918  
ASHW40 PHFO 240112  
RWRHI  
 
WEATHER ROUNDUP FOR HAWAII  
NATIONAL WEATHER SERVICE HONOLULU HI  
300 PM HST SAT FEB 23 2019  
 
THIS IS AN AUTOMATED REPORT THAT HAS NOT BEEN QUALITY CONTROLLED.  
 
NOTE..."FAIR" INDICATES FEW OR NO CLOUDS BELOW 12,000 FEET WITH NO  
SIGNIFICANT WEATHER AND/OR S TO VISIBILITY
.  
 
* - THESE SITES REPORT LIMITED FIELDS  
# - BUOY DATA PROVIDED BY PACIFIC ISLANDS OCEAN OBSERVING SYSTEM.  
 
HIZ001>004-240200-  
KAUAI-NIIHAU-  
 
CITY SKY/WX TMP DP RH WIND PRES REMARKS
 
LIHUE APT MOSUNNY 79 62 56 NE16 29.97F  
PORT ALLEN* N/A 79 N/A N/A SW7 N/A  
POIPU* N/A 79 N/A N/A NE7G17 N/A  
PRINCEVILLE* N/A 75 N/A N/A N5G12 N/A  
KOKOLE POINT* NOT AVBL  
MOLOAA DAIRY* N/A 82 64 54 N2G9 N/A  
WAIMEA HTS* NOT AVBL  
PUU OPAE* NOT AVBL  
PUU LUA* NOT AVBL  
MAKAHA RIDGE* NOT AVBL  

 
 
HIZ005>011-240200-  
OAHU-  
 
CITY SKY/WX TMP DP RH WIND PRES REMARKS
 
HONOLULU PTSUNNY 81 67 62 SW12 29.94S  
KALAELOA SUNNY 78 65 63 SW9 29.96S  
KANEOHE MCB CLOUDY 75 70 84 NE7 29.94S  
WHEELER FIELD FAIR 77 67 69 NW12 29.95F  
BELLOWS* NOT AVBL  
KAHUKU* NOT AVBL  
WHEELER* NOT AVBL  
WAIANAE HARBOR NOT AVBL  
DILLINGHAM* N/A 77 68 73 NE3 N/A  
KAHUKU TRN* N/A 73 64 73 MISG N/A  
KAWAILOA* N/A 73 63 68 NE8 N/A  
KII* N/A 75 68 78 NE9 N/A  
MAKUA RANGE* N/A 81 64 57 E10 N/A  
OAHU FOREST NW NOT AVBL  
SCHOFIELD BRK* N/A 79 68 69 NW6 N/A  
SCHOFIELD S* NOT AVBL  
WAIANAE VLY* NOT AVBL  
KUAOKALA* NOT AVBL  
HONOULIUULI* NOT AVBL  
MOKUOLOE IS* NOT AVBL  
PALEHUA* NOT AVBL  
WAIAWA PHB* NOT AVBL  

 
 
HIZ012>013-240200-  
MOLOKAI-  
 
CITY SKY/WX TMP DP RH WIND PRES REMARKS
 
MOLOKAI AIRPT PTSUNNY 77 65 66 NE15G22 29.96F  
KALAUPAPA NOT AVBL  
MAKAPULAPAI* NOT AVBL  
MOLOKAI 1* NOT AVBL  
PUU ALII* NOT AVBL  

 
 
HIZ016-240200-  
KAHOOLAWE-  
 
CITY SKY/WX TMP DP RH WIND PRES REMARKS
 
KAHOOLAWE* NOT AVBL  
HAKIOAWA* NOT AVBL  
HONOKANAIA* NOT AVBL  
KANELOA* N/A 77 64 65 NE17 30.00F  
KEALIALALO* NOT AVBL  
LUA MAKIKA* NOT AVBL  

 
 
HIZ014>015-240200-  
LANAI-  
 
CITY SKY/WX TMP DP RH WIND PRES REMARKS
 
LANAI CITY CLOUDY 74 65 73 NE8 29.99F  
LANAI 1* NOT AVBL  

 
 
HIZ017>028-240200-  
MAUI-  
 
CITY SKY/WX TMP DP RH WIND PRES REMARKS
 
KAHULUI PTSUNNY 80 66 62 NE15 29.94F  
KAPALUA-W MAUI MOSUNNY 79 66 65 N12G23 29.94  
HANA AIRPORT NOT AVBL  
HANA* N/A 72 N/A N/A SW3 N/A  
HALEAKALA SUMM NOT AVBL  
MAALAEA BAY* NOT AVBL  
HALEAKALA* NOT AVBL  
KAUPO GAP* NOT AVBL  
KULA 1* N/A 60 47 63 W5G14 N/A  

 
 
HIZ023>026-240200-  
BIG ISLAND OF HAWAII COAST AND LOWER SLOPES-  
 
CITY SKY/WX TMP DP RH WIND PRES REMARKS
 
KAILUA KONA LGT RAIN 74 71 91 CALM 29.92F  
HILO LGT RAIN 73 69 87 S3 29.93S FOG  
HONOKAA* NOT AVBL  
KAWAIHAE MWT* NOT AVBL  
KAWAIHAE* NOT AVBL  
SOUTH POINT* N/A 73 N/A N/A N1 N/A  
UPOLU AIRPORT* NOT AVBL  
KAMUELA* MOCLDY 68 66 94 NE8 30.03S  
HAKALAU* N/A 57 56 97 MISG N/A  
KALOKO-HONOKO* NOT AVBL  
PALI 2* NOT AVBL  
KEALAKOMO* N/A 81 72 74 S6 N/A  
KAUPULEHU* NOT AVBL  
KAPAPALA* N/A 70 66 88 SW5 N/A  
LOWER KAHUKU* NOT AVBL  
PUHE CS* NOT AVBL  
PUHO CS* NOT AVBL  
PTA KEAMUKU* N/A 64 61 88 NE12 N/A  
WAIKOLOA* NOT AVBL  

 
 
HIZ027>028-240200-  
BIG ISLAND OF HAWAII INTERIOR AND SUMMMITS-  
 
CITY SKY/WX TMP DP RH WIND PRES REMARKS
 
BRADSHAW FIELD CLOUDY 64 54 70 W7 30.23S  
MK VISITOR CEN N/A 48 45 87 W3 N/A  
MAUNA KEA* N/A 30 30 100 W8 N/A WCI 23  
MAUNA LOA* NOT AVBL  
MAUNA LOA 1* NOT AVBL  
PTA KIPUKA* N/A 66 64 94 S2 N/A  
PTA RANGE 17* N/A 61 59 94 SE10 N/A  
PTA WEST* N/A 64 64 100 W6G16 N/A  
NENE CABIN* NOT AVBL  
AHUMOA* NOT AVBL  
PTA PORTABLE* NOT AVBL  
PUU MALI* N/A 55 55 100 N10G16 N/A  

 
 
HIC003-240200-  
NORTHWEST ISLANDS-  
 
CITY SKY/WX TMP DP RH WIND PRES REMARKS
 
MIDWAY ISLAND MOSUNNY 70 52 52 E17 30.19F  
MIDWAY NOS* NOT AVBL  
FRENCH FRIGATE NOT AVBL  

 
 
PHZ110>124-180-240200-  
BUOY REPORTS  
 
STATION/POSITION TIME TEMP WIND PRES WAVE SWELL
 
AIR SEA DIR/SP/G HT/PER HT/DIR  
(UTC) (F) (DEG/KT/KT) (MB) (FT/S) (FT/D)  
BUOY 51101 0050 69 71 320/ 4/ 8 1016.6F 5/10 5  
BUOY 51100 NOT AVBL  
BUOY 51002 0050 1013.1F 5/ 9  
BUOY 51003 NOT AVBL  
BUOY 51004 0040 77 N/A 5/ 9 5/ 90  
WAIMEA BAY# 0042 72 N/A 3/11 2/330  
MOKAPU POINT# 0030 74 N/A 4/ 9 2/ 70  
LANAI# 0030 76 N/A 2/13 2/200  
BARBERS PT# 0030 76 N/A 2/10 2/200  
PAUWELA# 0030 76 N/A 5/ 9 2/ 10  
HILO# 0046 76 N/A 6/ 9 2/340  
KANEOHE BAY# 0024 75 N/A 4/ 9 2/ 10  
KANEOHE BAY 2# NOT AVBL  
HANALEI# 0036 75 N/A 4/ 9 2/ 50  
KAHULUI HARBOR 0042 74 10/ 7/ 9 1014.4F  
HONOLULU HARBOR 0042 77 74 50/ 5/ 9 1013.6F  
PEARL HARBOR# 0030 76 N/A 2/ 9  
KILO NALU NOT AVBL  
HILO HARBOR 0048 74 76 130/ 4/ 9 1012.9S  
MOKUOLOE 0036 73 75 40/ 7/ 8 1014.8F  
NAWILIWILI 0048 74 40/ 11/ 15 1014.7F  
WHOTS BUOY NOT AVBL  
BUOY 51028 NOT AVBL  

 
   
.....................KEY.....................................
 
 
SKY/WX - SKY CONDITIONS/PRESENT WEATHER  
TMP - TEMPERATURE IN FAHRENHEIT  
DWPT - DEWPOINT IN FAHRENHEIT  
RH - RELATIVE HUMIDITY IN PERCENT  
WIND - DIRECTION AND SPEED /MPH FOR ISLANDS...KTS FOR BUOYS/  
PRES - MEAN SEA LEVEL PRESSURE IN INCHES OF HG  
VSB - VISIBILITY IN MILES  
HX - HEAT INDEX  
WCI - WIND CHILL INDEX  
VRB - VARIABLE WIND DIRECTION  
N/A - NOT AVAILABLE  
 
 
CLICK HERE TO GO TO PREVIOUS BULLETINS.

The Nexlab HI Page Main Text Page